Total_Precipitation_Accumulation
0.00 0.00 0.00 0.00 0.00 0.00 0.00 0.00 0.00 0.00 0.00 0.00 0.00 0.00 0.00 0.01 0.01 0.02 0.01 0.00 0.01 0.03 0.05 0.05 0.06 0.06 0.07 0.09 0.15 0.22 0.33 0.44 0.66 0.66 0.57 0.59 0.60 0.56 0.51 0.41 0.33 0.30 0.28 0.31
0.00 0.00 0.00 0.00 0.00 0.00 0.00 0.00 0.00 0.00 0.00 0.00 0.00 0.00 0.01 0.02 0.04 0.05 0.05 0.03 0.03 0.09 0.08 0.09 0.14 0.13 0.13 0.23 0.35 0.49 0.68 0.96 1.04 0.93 0.91 0.95 0.94 0.88 0.87 0.74 0.54 0.38 0.31 0.32
0.00 0.00 0.00 0.00 0.00 0.00 0.00 0.00 0.00 0.00 0.00 0.00 0.00 0.00 0.01 0.05 0.08 0.11 0.10 0.07 0.06 0.08 0.08 0.09 0.12 0.15 0.20 0.30 0.41 0.61 0.90 1.16 1.25 1.24 1.22 1.16 1.15 1.06 0.95 0.76 0.58 0.45 0.37 0.36
0.00 0.00 0.00 0.00 0.00 0.00 0.00 0.00 0.00 0.00 0.00 0.00 0.00 0.00 0.00 0.02 0.04 0.06 0.08 0.07 0.05 0.07 0.07 0.07 0.07 0.07 0.11 0.18 0.34 0.57 0.79 0.96 1.07 1.11 1.05 1.05 1.08 1.04 0.91 0.72 0.54 0.43 0.37 0.40
0.00 0.00 0.00 0.00 0.00 0.00 0.00 0.00 0.00 0.00 0.00 0.00 0.00 0.00 0.00 0.00 0.00 0.01 0.02 0.05 0.08 0.09 0.10 0.13 0.18 0.23 0.28 0.36 0.47 0.56 0.64 0.73 0.82 0.81 0.79 0.82 0.83 0.79 0.72 0.56 0.45 0.40 0.39 0.42
0.00 0.01 0.01 0.00 0.00 0.00 0.00 0.00 0.00 0.00 0.00 0.00 0.00 0.00 0.00 0.00 0.00 0.01 0.03 0.06 0.10 0.15 0.21 0.26 0.31 0.37 0.41 0.48 0.60 0.71 0.75 0.90 1.01 0.94 0.82 0.80 0.79 0.75 0.68 0.57 0.49 0.41 0.39 0.40
0.00 0.00 0.00 0.00 0.01 0.01 0.00 0.02 0.05 0.03 0.01 0.00 0.00 0.00 0.00 0.01 0.00 0.02 0.05 0.06 0.06 0.08 0.16 0.24 0.36 0.54 0.57 0.53 0.56 0.78 1.04 1.25 1.27 1.11 0.92 0.82 0.77 0.75 0.72 0.65 0.58 0.52 0.48 0.45
0.00 0.00 0.01 0.02 0.03 0.04 0.03 0.06 0.15 0.11 0.04 0.02 0.01 0.01 0.03 0.02 0.03 0.03 0.03 0.03 0.02 0.02 0.03 0.05 0.08 0.17 0.19 0.15 0.13 0.20 0.34 0.47 0.51 0.49 0.46 0.48 0.48 0.52 0.57 0.59 0.58 0.57 0.56 0.52
0.00 0.00 0.01 0.04 0.08 0.08 0.13 0.14 0.11 0.22 0.18 0.14 0.04 0.02 0.06 0.04 0.06 0.04 0.03 0.02 0.01 0.01 0.01 0.02 0.02 0.04 0.05 0.06 0.09 0.15 0.22 0.25 0.25 0.19 0.15 0.17 0.21 0.27 0.34 0.39 0.42 0.45 0.47 0.45
0.00 0.00 0.01 0.02 0.05 0.07 0.08 0.13 0.27 0.40 0.37 0.25 0.11 0.09 0.17 0.19 0.19 0.20 0.14 0.06 0.02 0.01 0.01 0.01 0.03 0.06 0.12 0.18 0.22 0.24 0.22 0.17 0.10 0.07 0.07 0.07 0.09 0.12 0.16 0.19 0.20 0.23 0.26 0.29
0.00 0.01 0.02 0.08 0.11 0.10 0.09 0.14 0.27 0.37 0.36 0.31 0.23 0.20 0.16 0.20 0.28 0.36 0.31 0.15 0.07 0.04 0.03 0.03 0.04 0.08 0.12 0.16 0.16 0.17 0.13 0.07 0.04 0.02 0.02 0.01 0.03 0.05 0.06 0.07 0.06 0.07 0.08 0.08
0.01 0.02 0.03 0.05 0.04 0.02 0.06 0.14 0.26 0.40 0.41 0.38 0.32 0.25 0.11 0.09 0.15 0.21 0.19 0.10 0.06 0.04 0.03 0.02 0.02 0.03 0.04 0.07 0.08 0.07 0.05 0.03 0.01 0.00 0.00 0.00 0.00 0.00 0.00 0.01 0.01 0.01 0.01 0.01
0.01 0.02 0.02 0.02 0.04 0.05 0.09 0.09 0.16 0.26 0.34 0.35 0.34 0.30 0.17 0.14 0.15 0.15 0.12 0.08 0.04 0.03 0.03 0.02 0.01 0.01 0.01 0.03 0.07 0.07 0.05 0.03 0.01 0.00 0.00 0.01 0.00 0.00 0.00 0.00 0.00 0.00 0.00 0.00
0.00 0.00 0.01 0.02 0.03 0.03 0.05 0.06 0.10 0.18 0.27 0.23 0.17 0.18 0.21 0.23 0.22 0.17 0.12 0.07 0.03 0.02 0.02 0.02 0.01 0.01 0.00 0.01 0.02 0.03 0.04 0.03 0.01 0.00 0.01 0.01 0.01 0.00 0.00 0.00 0.00 0.00 0.00 0.00
0.00 0.00 0.01 0.01 0.01 0.02 0.02 0.03 0.06 0.10 0.13 0.17 0.15 0.19 0.27 0.29 0.24 0.17 0.11 0.07 0.04 0.03 0.02 0.01 0.01 0.01 0.01 0.01 0.02 0.04 0.03 0.02 0.02 0.02 0.02 0.02 0.01 0.01 0.01 0.01 0.01 0.00 0.00 0.00
0.00 0.00 0.01 0.05 0.09 0.09 0.08 0.07 0.08 0.09 0.09 0.11 0.14 0.20 0.22 0.19 0.16 0.13 0.11 0.08 0.07 0.05 0.03 0.02 0.01 0.01 0.01 0.01 0.03 0.04 0.05 0.04 0.04 0.04 0.03 0.02 0.02 0.02 0.02 0.02 0.02 0.01 0.00 0.00
0.00 0.00 0.01 0.05 0.15 0.15 0.13 0.07 0.10 0.12 0.12 0.19 0.30 0.31 0.23 0.18 0.14 0.09 0.07 0.06 0.05 0.04 0.03 0.02 0.01 0.01 0.01 0.01 0.03 0.05 0.05 0.03 0.02 0.03 0.03 0.02 0.03 0.05 0.06 0.05 0.03 0.03 0.01 0.01
0.00 0.00 0.02 0.06 0.14 0.14 0.08 0.02 0.03 0.06 0.06 0.08 0.14 0.15 0.12 0.12 0.10 0.06 0.03 0.02 0.02 0.02 0.01 0.01 0.01 0.01 0.01 0.02 0.03 0.06 0.06 0.04 0.03 0.04 0.05 0.05 0.05 0.09 0.10 0.08 0.04 0.03 0.02 0.03
0.00 0.00 0.01 0.04 0.06 0.06 0.02 0.01 0.01 0.05 0.05 0.01 0.03 0.03 0.02 0.01 0.01 0.02 0.01 0.00 0.00 0.00 0.00 0.01 0.01 0.01 0.02 0.03 0.05 0.08 0.08 0.08 0.07 0.07 0.08 0.08 0.08 0.10 0.11 0.11 0.08 0.07 0.07 0.05
0.00 0.00 0.01 0.02 0.04 0.04 0.02 0.00 0.00 0.01 0.06 0.01 0.00 0.01 0.00 0.00 0.04 0.06 0.01 0.00 0.00 0.00 0.00 0.01 0.01 0.02 0.04 0.06 0.08 0.12 0.11 0.12 0.12 0.09 0.07 0.06 0.06 0.08 0.10 0.11 0.11 0.11 0.11 0.07
0.00 0.00 0.00 0.01 0.01 0.00 0.00 0.00 0.00 0.04 0.10 0.01 0.00 0.00 0.00 0.00 0.03 0.02 0.01 0.00 0.00 0.00 0.00 0.00 0.02 0.06 0.10 0.08 0.10 0.12 0.11 0.12 0.12 0.12 0.10 0.07 0.05 0.06 0.08 0.10 0.11 0.12 0.12 0.08
0.00 0.00 0.00 0.00 0.00 0.00 0.00 0.00 0.00 0.01 0.01 0.00 0.00 0.00 0.00 0.00 0.00 0.00 0.00 0.00 0.00 0.00 0.00 0.01 0.03 0.08 0.12 0.11 0.13 0.13 0.12 0.13 0.14 0.15 0.11 0.09 0.07 0.04 0.05 0.10 0.12 0.13 0.12 0.08
0.00 0.00 0.00 0.00 0.00 0.00 0.00 0.00 0.00 0.00 0.00 0.00 0.00 0.00 0.00 0.00 0.00 0.00 0.00 0.00 0.00 0.00 0.00 0.01 0.04 0.08 0.09 0.11 0.17 0.20 0.19 0.15 0.16 0.16 0.13 0.12 0.10 0.07 0.06 0.07 0.09 0.09 0.08 0.07
0.00 0.00 0.00 0.00 0.00 0.00 0.00 0.00 0.00 0.00 0.00 0.00 0.00 0.00 0.00 0.00 0.00 0.00 0.00 0.00 0.00 0.00 0.00 0.01 0.04 0.07 0.10 0.10 0.13 0.17 0.19 0.17 0.15 0.17 0.16 0.17 0.18 0.15 0.12 0.11 0.09 0.07 0.06 0.05
0.00 0.00 0.00 0.00 0.00 0.00 0.00 0.00 0.00 0.00 0.00 0.00 0.00 0.00 0.00 0.00 0.00 0.00 0.00 0.00 0.00 0.00 0.00 0.01 0.03 0.06 0.07 0.07 0.09 0.11 0.12 0.12 0.13 0.13 0.13 0.16 0.20 0.21 0.19 0.16 0.13 0.10 0.08 0.06
0.00 0.00 0.00 0.00 0.00 0.00 0.00 0.00 0.00 0.00 0.00 0.00 0.00 0.00 0.00 0.00 0.00 0.00 0.00 0.00 0.00 0.00 0.00 0.00 0.01 0.02 0.04 0.04 0.06 0.09 0.10 0.10 0.13 0.13 0.14 0.14 0.15 0.14 0.14 0.13 0.07 0.04 0.03 0.03